Presure
230 230 169 134 208 245 216 207 209 211 222 215 211 208 201 205 205 218 197 192 183 183 183 188 193 189 195 185 188 198 157 146
190 135 136 213 211 205 219 226 211 227 216 209 198 203 202 203 206 205 178 182 183 188 191 196 175 184 182 182 197 192 197 194
242 233 220 216 216 206 207 206 228 213 205 199 193 198 203 205 191 186 183 185 188 194 194 202 189 185 197 198 201 198 195 192
210 218 218 203 203 206 224 207 205 199 198 194 202 200 195 195 193 185 196 197 201 204 197 195 198 204 205 195 195 196 201 210
223 208 209 215 218 208 206 186 194 194 199 203 195 196 195 191 197 193 199 195 199 200 205 207 208 203 194 202 206 219 224 226
211 210 209 211 200 195 197 193 194 195 184 195 182 194 193 193 199 196 195 194 197 111 205 207 196 206 213 219 213 226 218 231
216 215 208 199 198 200 194 196 191 190 185 188 195 191 194 188 190 188 191 92 187 199 202 202 208 213 218 222 227 231 248 264
207 208 201 202 191 191 186 192 191 189 194 195 190 185 187 159 190 192 196 196 205 206 206 207 212 219 225 239 256 271 271 287
220 204 189 188 186 192 187 189 189 203 191 180 185 195 185 192 189 195 204 196 195 207 215 214 218 237 259 269 274 294 309 354
200 200 194 184 182 182 198 206 192 184 183 189 188 185 182 189 194 196 202 207 213 218 237 256 263 269 258 283 305 331 368 360
189 193 193 200 207 194 188 187 187 192 194 189 184 183 188 195 202 203 204 207 227 242 252 269 258 278 313 367 359 446 454 518
211 208 206 197 196 192 183 190 181 187 179 190 187 184 195 202 204 204 206 225 256 258 269 263 279 368 371 454 433 435 405 456
203 202 201 190 177 184 195 190 186 182 185 187 186 194 204 203 205 222 231 253 265 272 277 310 362 443 447 434 441 397 442 423
203 198 176 175 179 181 190 183 188 181 190 186 203 206 201 207 229 246 254 272 262 282 315 377 455 418 420 414 490 430 406 391
201 199 194 193 184 187 186 182 181 185 189 201 207 201 214 228 249 253 273 268 283 395 420 474 415 452 434 450 408 386 371 360
199 198 193 194 189 182 182 185 188 194 201 206 202 218 230 254 256 266 271 338 379 459 436 414 401 465 429 395 375 361 353 351
200 193 193 183 182 182 184 193 196 195 206 208 223 240 253 257 279 267 394 373 469 429 404 397 381 391 382 367 354 349 347 349
202 195 187 181 181 190 195 204 205 205 213 234 238 250 260 273 265 402 428 466 427 400 391 381 390 371 363 352 351 346 341 339
195 190 189 184 191 197 206 209 203 221 234 236 255 262 274 266 398 489 464 432 401 383 374 386 369 363 351 348 343 335 351 353
Wind_Speed
57 56 59 63 57 37 58 72 75 70 57 62 65 65 71 66 67 64 67 72 75 78 78 80 79 79 81 76 77 82 63 60
56 64 66 62 59 63 60 56 68 56 58 61 72 68 68 69 68 68 75 77 79 81 83 83 75 80 80 83 89 85 86 84
43 49 55 58 57 61 63 62 49 55 58 65 72 70 70 70 74 76 78 80 82 83 84 84 82 82 89 90 92 91 91 89
49 49 51 58 61 61 50 58 55 61 63 68 67 70 73 77 78 79 82 84 86 86 85 85 89 92 92 92 94 96 97 101
45 53 55 55 54 57 55 63 62 64 64 66 71 74 76 79 83 85 87 88 90 91 94 96 97 96 92 100 105 109 111 110
52 51 54 53 52 57 59 62 63 66 68 71 74 77 80 83 86 90 93 94 97 59 101 106 99 108 111 114 111 120 111 121
50 51 51 52 57 57 60 62 68 71 73 77 79 81 84 87 91 95 98 46 100 105 107 108 114 118 123 125 127 128 133 135
55 54 51 57 62 64 67 68 71 74 78 79 79 80 85 76 93 98 103 105 113 115 116 119 121 125 128 136 137 136 134 135
48 47 56 60 65 68 72 73 75 76 77 77 82 87 87 95 98 107 111 110 108 117 122 121 125 133 134 132 134 142 141 127
47 49 53 58 63 67 69 71 73 77 82 85 87 89 90 100 106 109 113 119 122 125 129 132 134 133 130 140 141 134 115 115
56 58 59 61 61 65 69 73 77 80 83 86 88 92 100 107 111 115 118 123 127 127 132 136 130 136 140 118 118 80 77 60
51 53 55 59 62 64 69 74 73 82 82 92 96 97 109 114 117 119 122 125 129 128 133 127 135 121 115 74 80 76 75 57
57 59 60 61 64 71 76 80 84 88 94 99 100 110 113 116 120 125 125 127 133 134 133 138 120 81 78 76 73 73 53 52
61 63 64 68 73 78 82 85 90 90 101 103 111 113 113 119 126 131 129 138 125 137 133 112 71 79 79 73 55 50 53 53
64 66 69 73 79 82 87 89 93 101 105 111 114 114 123 126 128 126 136 132 134 114 91 63 76 64 64 47 50 52 54 56
65 68 72 76 80 85 89 96 101 106 110 114 116 122 124 128 129 132 131 125 112 74 69 70 66 51 44 50 52 54 56 58
68 72 75 80 84 89 95 100 105 110 112 116 120 124 129 131 136 131 117 110 66 63 64 60 58 51 49 50 52 55 56 58
70 75 81 84 89 96 100 102 106 110 115 122 125 130 132 135 131 115 89 58 58 59 56 54 47 48 48 50 52 52 54 57
73 79 85 90 95 99 102 105 109 116 121 124 132 133 136 132 117 62 56 52 53 54 53 46 48 48 48 49 51 53 57 60
Wind_Direction
274 279 285 288 282 265 277 281 281 285 278 280 281 284 286 288 289 288 283 286 296 298 297 297 296 297 297 295 294 292 290 287
281 289 290 282 283 280 274 270 282 274 275 281 284 287 291 291 289 287 299 299 297 295 294 294 296 296 296 294 293 294 293 291
267 273 280 279 278 279 279 283 273 281 282 284 288 290 290 289 290 294 294 294 293 292 293 294 293 293 292 293 292 292 291 289
276 274 272 279 281 279 279 282 283 284 285 288 289 289 289 290 291 295 294 295 294 294 294 294 294 294 294 295 295 294 290 287
267 271 273 269 271 277 277 282 287 290 292 291 293 293 294 296 297 299 298 298 298 299 298 299 299 299 298 298 295 295 296 295
277 279 276 279 286 286 290 294 292 292 298 297 299 298 298 300 301 301 301 302 304 307 305 304 306 302 301 300 300 298 297 295
286 283 287 287 286 292 293 296 298 299 301 299 297 300 303 304 303 303 303 317 305 306 304 305 305 305 304 302 300 298 295 293
281 290 296 293 298 298 302 299 298 299 298 298 300 301 301 299 302 303 303 305 304 305 306 305 304 303 302 300 298 296 295 294
280 285 291 294 298 295 299 296 295 294 298 301 303 304 306 305 307 306 304 305 307 305 303 304 303 300 299 299 299 299 298 293
283 281 286 290 288 291 289 291 296 298 302 303 303 306 308 308 305 305 304 303 304 304 303 303 303 304 303 302 300 296 296 294
294 293 290 289 292 295 298 300 300 297 299 304 308 309 308 306 305 305 307 307 307 309 308 307 305 305 303 302 300 301 301 302
291 290 290 293 292 293 297 297 302 306 309 305 307 309 308 307 307 308 307 307 309 309 309 307 306 305 306 306 305 306 304 304
300 299 300 299 301 304 303 305 308 310 310 311 311 307 306 307 307 306 308 311 312 311 308 305 307 307 307 305 304 305 307 306
300 302 306 308 308 309 306 310 309 311 309 310 306 306 307 307 310 312 313 312 313 311 308 310 307 305 306 306 304 305 304 306
303 302 302 302 306 306 308 309 310 309 308 305 306 308 308 310 311 314 314 314 313 313 309 303 302 302 305 305 305 305 307 307
300 299 300 303 306 308 308 307 307 306 306 308 308 308 308 313 315 316 316 310 314 307 307 303 309 306 304 305 307 310 309 308
301 303 304 307 307 307 307 305 306 308 307 306 307 310 315 316 314 318 316 315 308 307 308 310 310 306 308 311 313 311 309 308
303 302 305 308 307 305 305 306 306 307 307 311 313 315 315 316 320 318 316 314 311 311 313 313 309 311 315 316 312 312 310 310
303 304 305 306 305 305 306 307 307 310 314 315 315 317 317 320 320 317 317 315 314 315 315 314 316 318 318 317 318 316 318 317